STARLINK-36800

Last updated on Sun Mar 15 2026 00:02:06 GMT+0000 (Coordinated Universal Time)

1 67797U 26032A 26073.52162219 .00262714 00000+0 17011-2 0 9998 2 67797 97.2836 260.2415 0001772 75.4669 284.6793 15.75291859 5542
UTC large
Height (km)
Speed (km/s)
/
Latitude / Longitude
Inclination (degrees)
Orbital Period (minutes)
Azimuth
Elevation
Range (km)
Doppler Factor

Next 0 passes for location: London (51.5072 / 0.1276)

Sorry there are no passes over London.